"TOA5","MOW","CPU:UNC_MeetingWaters","DataHourly"
"TIMESTAMP","SondeTempC","SpCond","DOSat","DOmg","pH","Turb","BattVolt_Min"
"TS","","","","","","",""
"","Smp","Smp","Smp","Smp","Smp","Smp","Min"
"2006-06-01 00:00:00",20.5499992371,0.01600000076,106.199996948,9.55000019073,7.48999977112,17.8999996185,12.8999996185
"2006-06-01 01:00:00",20.2399997711,0.01600000076,106.0,9.59000015259,7.5,17.0,12.8900003433
"2006-06-01 02:00:00",20.0200004578,0.01600000076,105.900001526,9.63000011444,7.5,16.8999996185,12.8699998856
"2006-06-01 03:00:00",19.7600002289,0.0170000009239,105.800003052,9.67000007629,7.5,16.2999992371,12.8500003815
"2006-06-01 04:00:00",19.7000007629,0.0170000009239,106.0,9.68999958038,7.51000022888,19.5,12.8299999237
"2006-06-01 05:00:00",19.5499992371,0.0170000009239,105.599998474,9.68000030518,7.51999998093,14.6999998093,12.8100004196
"2006-06-01 06:00:00",18.9400005341,0.0179999992251,105.699996948,9.81000041962,7.51999998093,14.3000001907,12.8000001907
"2006-06-01 07:00:00",19.2199993134,0.0179999992251,105.699996948,9.76000022888,7.51999998093,15.3000001907,12.7899999619
"2006-06-01 08:00:00",19.7600002289,0.0179999992251,105.800003052,9.67000007629,7.51000022888,13.6999998093,12.8100004196
"2006-06-01 09:00:00",20.6499996185,0.0189999993891,106.099998474,9.52999973297,7.5,14.1999998093,12.8800001144
"2006-06-01 10:00:00",21.1499996185,0.0189999993891,103.5,9.19999980927,8.26000022888,14.1000003815,13.1800003052
"2006-06-01 11:00:00",22.2299995422,0.019999999553,106.400001526,9.26000022888,8.11999988556,13.3999996185,13.8000001907
"2006-06-01 12:00:00",23.4300003052,0.0189999993891,107.099998474,9.10999965668,7.96000003815,14.1000003815,13.8599996567
"2006-06-01 13:00:00",24.0400009155,0.0179999992251,107.5,9.03999996185,7.94000005722,17.0,13.8800001144
"2006-06-01 14:00:00",25.2000007629,0.01600000076,107.300003052,8.84000015259,7.78000020981,20.2000007629,13.8500003815
"2006-06-01 15:00:00",25.4699993134,0.0130000002682,107.300003052,8.78999996185,7.19000005722,20.2999992371,13.0799999237
"2006-06-01 16:00:00",24.4599990845,0.0109999999404,106.099998474,8.85999965668,6.44000005722,22.2999992371,13.029999733
"2006-06-01 17:00:00",24.1200008392,0.0109999999404,106.099998474,8.90999984741,6.90999984741,18.7000007629,13.0600004196
"2006-06-01 18:00:00",23.8700008392,0.00999999977648,106.199996948,8.96000003815,7.01000022888,17.6000003815,13.0200004578
"2006-06-01 19:00:00",23.3899993896,0.00999999977648,105.900001526,9.02000045776,7.01999998093,17.0,13.0
"2006-06-01 20:00:00",22.6499996185,0.00999999977648,105.800003052,9.13000011444,7.07999992371,16.6000003815,12.9499998093
"2006-06-01 21:00:00",21.9500007629,0.00999999977648,105.599998474,9.25,7.13000011444,15.1000003815,12.9300003052
"2006-06-01 22:00:00",21.4799995422,0.00999999977648,105.599998474,9.32999992371,7.17999982834,15.1999998093,12.8999996185
"2006-06-01 23:00:00",21.3899993896,0.00999999977648,105.5,9.32999992371,7.19000005722,15.8999996185,12.8800001144
"2006-06-02 00:00:00",21.0499992371,0.00999999977648,105.5,9.39999961853,7.17999982834,15.1000003815,12.8599996567
"2006-06-02 01:00:00",20.7399997711,0.00999999977648,105.400001526,9.43999958038,7.17999982834,15.8000001907,12.8400001526
"2006-06-02 02:00:00",20.6200008392,0.00999999977648,105.300003052,9.44999980927,7.21000003815,14.8999996185,12.8199996948
"2006-06-02 03:00:00",20.5200004578,0.00999999977648,105.300003052,9.47999954224,7.23000001907,14.8999996185,12.8000001907
"2006-06-02 04:00:00",20.3700008392,0.00999999977648,105.099998474,9.48999977112,7.25,16.0,12.7899999619
"2006-06-02 05:00:00",20.3899993896,0.00999999977648,105.099998474,9.47999954224,7.25,15.0,12.779999733
"2006-06-02 06:00:00",20.4099998474,0.00999999977648,105.0,9.47000026703,7.23999977112,13.1000003815,12.7700004578
"2006-06-02 07:00:00",20.5799999237,0.00999999977648,105.099998474,9.43999958038,7.25,13.5,12.779999733
"2006-06-02 08:00:00",20.6800003052,0.00999999977648,105.099998474,9.43000030518,7.26000022888,13.8999996185,12.8000001907
"2006-06-02 09:00:00",21.0499992371,0.00999999977648,105.199996948,9.36999988556,7.26000022888,12.5,12.9200000763
"2006-06-02 10:00:00",21.6200008392,0.00899999961257,105.800003052,9.31999969482,7.19999980927,12.1000003815,13.220000267
"2006-06-02 11:00:00",22.5100002289,0.00899999961257,106.0,9.18000030518,7.03000020981,12.8999996185,13.3199996948
"2006-06-02 12:00:00",24.3799991608,0.00899999961257,106.900001526,8.93999958038,6.88999986649,12.1000003815,13.9499998093
"2006-06-02 13:00:00",25.6700000763,0.00800000037998,106.300003052,8.68000030518,6.51000022888,13.3000001907,13.8800001144
"2006-06-02 14:00:00",26.2700004578,0.00700000021607,105.099998474,8.48999977112,6.42999982834,12.3999996185,13.8100004196
"2006-06-02 15:00:00",26.5799999237,0.00600000005215,104.800003052,8.40999984741,6.30999994278,13.5,13.779999733
"2006-06-02 16:00:00",25.2700004578,0.00600000005215,104.300003052,8.57999992371,6.26000022888,14.5,13.7899999619
"2006-06-02 17:00:00",23.3199996948,0.00499999988824,104.099998474,8.88000011444,6.63999986649,13.8000001907,13.029999733
"2006-06-02 18:00:00",24.6299991608,0.101000003517,98.5,8.18999958038,8.0,516.900024414,13.0200004578
"2006-06-02 19:00:00",24.0499992371,0.115000002086,93.4000015259,7.84999990463,7.65000009537,231.300003052,12.9799995422
"2006-06-02 20:00:00",23.3899993896,0.107000000775,98.8000030518,8.40999984741,7.46999979019,315.700012207,12.9499998093
"2006-06-02 21:00:00",23.1100006104,0.104000002146,94.4000015259,8.07999992371,7.42999982834,179.100006104,12.9300003052
"2006-06-02 22:00:00",22.7700004578,0.112999998033,91.8000030518,7.90999984741,7.38000011444,105.099998474,12.9099998474
"2006-06-02 23:00:00",22.4400005341,0.0799999982119,90.8000030518,7.86999988556,7.36000013351,66.4000015259,12.8900003433
"2006-06-03 00:00:00",22.1399993896,0.01600000076,89.6999969482,7.82000017166,7.34999990463,50.4000015259,12.8800001144
"2006-06-03 01:00:00",21.9099998474,0.01600000076,90.5999984741,7.94000005722,7.36999988556,42.7999992371,12.8599996567
"2006-06-03 02:00:00",22.0599994659,0.150999993086,95.6999969482,8.35999965668,7.34999990463,58.4000015259,12.8500003815
"2006-06-03 03:00:00",22.2600002289,0.10000000149,98.9000015259,8.60000038147,7.40000009537,381.399993896,12.8299999237
"2006-06-03 04:00:00",22.1000003815,0.108999997377,96.1999969482,8.39999961853,7.32000017166,188.300003052,12.8100004196
"2006-06-03 05:00:00",21.8999996185,0.119999997318,94.5999984741,8.27999973297,7.34000015259,101.5,12.8000001907
"2006-06-03 06:00:00",21.6800003052,0.0960000008345,93.5,8.22000026703,7.32999992371,59.9000015259,12.779999733
"2006-06-03 07:00:00",21.5100002289,0.0920000001788,93.5999984741,8.26000022888,7.36000013351,44.0999984741,12.7700004578
"2006-06-03 08:00:00",21.3899993896,0.0170000009239,94.9000015259,8.39000034332,7.40000009537,36.0999984741,12.779999733
"2006-06-03 09:00:00",21.3400001526,0.01600000076,96.3000030518,8.52999973297,7.48000001907,33.9000015259,12.8500003815
"2006-06-03 10:00:00",21.2600002289,0.01600000076,97.6999969482,8.67000007629,7.53999996185,29.3999996185,12.8900003433
"2006-06-03 11:00:00",21.1299991608,0.0209999997169,98.5999984741,8.77000045776,7.61999988556,27.5,12.9099998474
"2006-06-03 12:00:00",20.2900009155,0.01600000076,100.199996948,9.06000041962,8.09000015259,23.3999996185,13.1099996567
"2006-06-03 13:00:00",20.1599998474,0.01600000076,102.099998474,9.26000022888,8.06000041962,23.7000007629,13.3999996185
"2006-06-03 14:00:00",21.4799995422,0.01600000076,106.599998474,9.40999984741,7.96000003815,21.6000003815,14.0500001907
"2006-06-03 15:00:00",20.6900005341,0.0149999996647,106.199996948,9.52000045776,7.80999994278,18.3999996185,13.9300003052
"2006-06-03 16:00:00",20.9699993134,0.0140000004321,104.0,9.27999973297,7.75,17.2999992371,13.9099998474
"2006-06-03 17:00:00",20.8400001526,0.0130000002682,105.199996948,9.40999984741,7.67000007629,15.6000003815,13.9300003052
"2006-06-03 18:00:00",21.2000007629,0.0130000002682,105.5,9.36999988556,7.65000009537,17.2999992371,13.1700000763
"2006-06-03 19:00:00",20.9599990845,0.0130000002682,105.400001526,9.40999984741,7.61999988556,18.7000007629,13.0500001907
"2006-06-03 20:00:00",20.8400001526,0.0130000002682,105.300003052,9.42000007629,7.59999990463,18.7999992371,13.0100002289
"2006-06-03 21:00:00",19.7999992371,0.0120000001043,105.199996948,9.60999965668,7.59000015259,23.0,12.9799995422
"2006-06-03 22:00:00",19.2299995422,0.0120000001043,105.400001526,9.72999954224,7.57000017166,34.4000015259,12.9600000381
"2006-06-03 23:00:00",18.6599998474,0.0120000001043,105.0,9.81000041962,7.57999992371,24.1000003815,12.9300003052
"2006-06-04 00:00:00",18.8199996948,0.0120000001043,98.1999969482,9.14000034332,7.59999990463,18.7999992371,12.9099998474
"2006-06-04 01:00:00",18.3500003815,0.0130000002682,105.099998474,9.88000011444,7.59000015259,22.1000003815,12.8900003433
"2006-06-04 02:00:00",17.5100002289,0.0130000002682,104.800003052,10.0200004578,7.59000015259,15.8000001907,12.8699998856
"2006-06-04 03:00:00",17.0599994659,0.0140000004321,104.400001526,10.0799999237,7.59000015259,13.8000001907,12.8500003815
"2006-06-04 04:00:00",16.8799991608,0.0140000004321,104.099998474,10.0799999237,7.59999990463,14.5,12.8400001526
"2006-06-04 05:00:00",16.4300003052,0.0140000004321,103.900001526,10.1599998474,7.61999988556,15.8999996185,12.8100004196
"2006-06-04 06:00:00",16.0200004578,0.0149999996647,103.900001526,10.25,7.63000011444,17.8999996185,12.779999733
"2006-06-04 07:00:00",15.8800001144,0.0149999996647,104.0,10.3000001907,7.63999986649,19.8999996185,12.7700004578
"2006-06-04 08:00:00",16.5,0.0149999996647,104.300003052,10.1899995804,7.63000011444,19.2000007629,12.779999733
"2006-06-04 09:00:00",18.3199996948,0.019999999553,100.900001526,9.48999977112,7.76000022888,20.0,12.8100004196
"2006-06-04 10:00:00",18.5100002289,0.0219999998808,102.5,9.60000038147,8.31000041962,16.8999996185,13.1400003433
"2006-06-04 11:00:00",18.8899993896,0.0209999997169,104.900001526,9.75,8.19999980927,26.1000003815,14.0600004196
"2006-06-04 12:00:00",20.5400009155,0.0170000009239,105.400001526,9.47999954224,8.06000041962,30.0,13.9200000763
"2006-06-04 13:00:00",20.8099994659,0.0140000004321,106.199996948,9.51000022888,7.92000007629,25.3999996185,13.9399995804
"2006-06-04 14:00:00",22.9300003052,0.0109999999404,105.5,9.06999969482,7.65999984741,19.2999992371,13.9200000763
"2006-06-04 15:00:00",23.2199993134,0.00899999961257,104.5,8.93000030518,6.65999984741,17.0,13.9099998474
"2006-06-04 16:00:00",22.0699996948,0.00800000037998,104.099998474,9.09000015259,5.82999992371,17.1000003815,13.8900003433
"2006-06-04 17:00:00",21.6399993896,0.00800000037998,103.599998474,9.11999988556,6.03000020981,14.6999998093,13.9499998093
"2006-06-04 18:00:00",21.7999992371,0.00700000021607,103.5,9.07999992371,6.09000015259,14.6999998093,13.1000003815
"2006-06-04 19:00:00",20.8099994659,0.00700000021607,103.400001526,9.25,6.44000005722,19.3999996185,13.029999733
"2006-06-04 20:00:00",19.8799991608,0.00700000021607,103.400001526,9.42000007629,6.30000019073,15.6000003815,13.0
"2006-06-04 21:00:00",18.6900005341,0.00700000021607,102.699996948,9.59000015259,6.67999982834,15.5,12.9799995422
"2006-06-04 22:00:00",18.3700008392,0.00700000021607,102.800003052,9.65999984741,6.82000017166,14.6999998093,12.9399995804
"2006-06-04 23:00:00",18.4899997711,0.00700000021607,102.900001526,9.64999961853,6.86000013351,13.8999996185,12.9200000763
"2006-06-05 00:00:00",18.1100006104,0.00700000021607,102.800003052,9.71000003815,6.92000007629,12.8999996185,12.8999996185
"2006-06-05 01:00:00",17.8400001526,0.00700000021607,102.900001526,9.77999973297,6.98999977112,13.6999998093,12.8800001144
"2006-06-05 02:00:00",18.0699996948,0.00700000021607,97.3000030518,9.19999980927,7.17000007629,14.5,12.8599996567
"2006-06-05 03:00:00",18.8899993896,0.32800000906,96.5,8.97000026703,7.94000005722,32.0999984741,12.8400001526
"2006-06-05 04:00:00",19.0400009155,0.146999999881,94.0,8.71000003815,8.02999973297,56.4000015259,12.8199996948
"2006-06-05 05:00:00",17.75,0.0189999993891,93.6999969482,8.92000007629,8.31000041962,38.9000015259,12.8000001907
"2006-06-05 06:00:00",17.0599994659,0.0179999992251,103.099998474,9.94999980927,8.31000041962,30.7999992371,12.7700004578
"2006-06-05 07:00:00",16.4799995422,0.0179999992251,103.300003052,10.1000003815,8.28999996185,25.2999992371,12.7600002289
"2006-06-05 08:00:00",16.4099998474,0.0179999992251,103.599998474,10.1400003433,8.27000045776,23.3999996185,12.779999733
"2006-06-05 09:00:00",17.3999996185,0.0179999992251,96.5999984741,9.26000022888,8.27000045776,22.1000003815,12.9300003052
"2006-06-05 10:00:00",17.6200008392,0.0189999993891,103.599998474,9.88000011444,8.19999980927,20.1000003815,13.1400003433
"2006-06-05 11:00:00",18.25,0.0179999992251,104.0,9.78999996185,8.13000011444,18.7000007629,13.3500003815
"2006-06-05 12:00:00",18.8500003815,0.0179999992251,104.400001526,9.71000003815,8.07999992371,19.2000007629,13.470000267
"2006-06-05 13:00:00",19.4400005341,0.0170000009239,106.199996948,9.77000045776,7.96999979019,18.5,14.0699996948
"2006-06-05 14:00:00",19.1900005341,0.0149999996647,104.599998474,9.65999984741,7.90000009537,19.5,13.8000001907
"2006-06-05 15:00:00",19.4899997711,0.0130000002682,105.300003052,9.67000007629,7.76000022888,20.7000007629,14.0699996948
"2006-06-05 16:00:00",19.0599994659,0.0120000001043,103.800003052,9.61999988556,8.09000015259,21.3999996185,13.1999998093
"2006-06-05 17:00:00",18.9200000763,0.0130000002682,104.0,9.65999984741,8.10999965668,18.2999992371,14.1000003815
"2006-06-05 18:00:00",19.2299995422,0.0120000001043,104.099998474,9.60999965668,8.03999996185,18.0,13.1099996567
"2006-06-05 19:00:00",19.0699996948,0.0120000001043,104.0,9.63000011444,8.0,16.2999992371,13.0500001907
"2006-06-05 20:00:00",18.2600002289,0.0120000001043,103.900001526,9.77999973297,7.94999980927,20.7000007629,12.9899997711
"2006-06-05 21:00:00",16.5599994659,0.0109999999404,103.400001526,10.0799999237,7.92999982834,16.7999992371,12.970000267
"2006-06-05 22:00:00",16.2000007629,0.0109999999404,103.199996948,10.1400003433,7.92999982834,16.2000007629,12.9399995804
"2006-06-05 23:00:00",16.2000007629,0.0109999999404,102.900001526,10.1099996567,7.94000005722,15.8999996185,12.9200000763
"2006-06-06 00:00:00",15.3299999237,0.0109999999404,102.900001526,10.3000001907,7.94999980927,15.0,12.8900003433
"2006-06-06 01:00:00",15.1300001144,0.0109999999404,102.699996948,10.3299999237,7.96000003815,14.6000003815,12.8699998856
"2006-06-06 02:00:00",14.5100002289,0.00999999977648,102.599998474,10.4600000381,7.96000003815,14.8999996185,12.8500003815
"2006-06-06 03:00:00",14.1400003433,0.00999999977648,102.400001526,10.5200004578,7.96999979019,15.3999996185,12.8299999237
"2006-06-06 04:00:00",14.1599998474,0.00999999977648,102.400001526,10.5100002289,7.94999980927,13.3999996185,12.8000001907
"2006-06-06 05:00:00",14.4300003052,0.00999999977648,102.300003052,10.4499998093,7.94999980927,12.6999998093,12.7700004578
"2006-06-06 06:00:00",14.1499996185,0.00999999977648,102.400001526,10.5200004578,7.94999980927,12.5,12.7399997711
"2006-06-06 07:00:00",14.5699996948,0.00999999977648,102.300003052,10.4099998474,7.92000007629,13.1999998093,12.75
"2006-06-06 08:00:00",15.1999998093,0.0109999999404,102.599998474,10.3000001907,7.88000011444,13.0,12.8500003815
"2006-06-06 09:00:00",16.2900009155,0.00999999977648,102.900001526,10.1000003815,7.82000017166,12.0,12.8500003815
"2006-06-06 10:00:00",17.3099994659,0.00999999977648,103.0,9.89000034332,7.73000001907,11.8000001907,13.3100004196
"2006-06-06 11:00:00",18.3700008392,0.00999999977648,103.199996948,9.68999958038,7.59999990463,13.6000003815,14.1000003815
"2006-06-06 12:00:00",19.6299991608,0.00899999961257,104.0,9.52999973297,7.40999984741,11.0,14.0399999619
"2006-06-06 13:00:00",21.8500003815,0.00800000037998,105.400001526,9.25,6.80000019073,12.1999998093,14.0200004578
"2006-06-06 14:00:00",22.2800006866,0.00700000021607,104.099998474,9.05000019073,5.40000009537,11.5,13.970000267
"2006-06-06 15:00:00",22.6000003815,0.00600000005215,104.300003052,9.01000022888,5.67999982834,11.6999998093,13.25
"2006-06-06 16:00:00",20.3299999237,0.00600000005215,103.199996948,9.32999992371,5.98000001907,12.8000001907,13.0799999237
"2006-06-06 17:00:00",19.7199993134,0.00600000005215,103.199996948,9.43999958038,6.48000001907,12.1999998093,14.1300001144
"2006-06-06 18:00:00",19.6399993896,0.00499999988824,103.0,9.43000030518,6.44999980927,13.1999998093,13.029999733
"2006-06-06 19:00:00",18.9400005341,0.0890000015497,99.1999969482,9.21000003815,8.06000041962,1367.0,12.9899997711
"2006-06-06 20:00:00",19.1599998474,0.135000005364,95.5999984741,8.84000015259,7.92999982834,1361.0,12.9799995422
"2006-06-06 21:00:00",19.1100006104,0.150999993086,94.4000015259,8.73999977112,7.80999994278,642.400024414,12.9399995804
"2006-06-06 22:00:00",18.9599990845,0.166999995708,94.3000030518,8.75,7.73000001907,376.299987793,12.9200000763
"2006-06-06 23:00:00",18.75,0.130999997258,93.9000015259,8.75,7.71999979019,236.399993896,12.8999996185
"2006-06-07 00:00:00",18.4500007629,0.131999999285,93.0999984741,8.72999954224,7.71999979019,133.199996948,12.8800001144
"2006-06-07 01:00:00",18.2000007629,0.0260000005364,93.0,8.77000045776,7.73000001907,97.1999969482,12.8500003815
"2006-06-07 02:00:00",17.9200000763,0.0209999997169,93.0,8.81999969482,7.76000022888,72.3000030518,12.8400001526
"2006-06-07 03:00:00",17.7000007629,0.019999999553,94.5,9.0,7.78999996185,62.2999992371,12.8000001907
"2006-06-07 04:00:00",17.3799991608,0.0189999993891,94.8000030518,9.09000015259,7.84999990463,55.7000007629,12.779999733
"2006-06-07 05:00:00",17.2999992371,0.019999999553,94.5999984741,9.09000015259,7.86000013351,45.4000015259,12.7600002289
"2006-06-07 06:00:00",17.1399993896,0.0209999997169,96.3000030518,9.27999973297,7.90999984741,34.5999984741,12.7399997711
"2006-06-07 07:00:00",16.5300006866,0.019999999553,97.3000030518,9.5,7.96000003815,33.7000007629,12.7399997711
"2006-06-07 08:00:00",16.4099998474,0.019999999553,98.0999984741,9.60000038147,8.07999992371,30.2000007629,12.7600002289
"2006-06-07 09:00:00",17.3199996948,0.035000000149,99.1999969482,9.52999973297,7.98999977112,25.8999996185,12.8000001907
"2006-06-07 10:00:00",17.7600002289,0.0240000002086,101.0,9.60000038147,8.02999973297,21.7000007629,13.029999733
"2006-06-07 11:00:00",18.5400009155,0.0230000000447,103.400001526,9.68000030518,8.03999996185,33.2000007629,14.1099996567
"2006-06-07 12:00:00",19.5499992371,0.035000000149,106.0,9.72999954224,8.07999992371,79.4000015259,13.970000267
"2006-06-07 13:00:00",20.5400009155,0.0260000005364,107.300003052,9.64999961853,8.07999992371,59.5999984741,13.9200000763
"2006-06-07 14:00:00",21.4500007629,0.0219999998808,107.900001526,9.53999996185,8.26000022888,152.100006104,13.1499996185
"2006-06-07 15:00:00",21.6499996185,0.0209999997169,111.599998474,9.82999992371,8.26000022888,207.199996948,13.1300001144
"2006-06-07 16:00:00",21.2999992371,0.019999999553,104.599998474,9.27000045776,8.18999958038,195.300003052,13.0799999237
"2006-06-07 17:00:00",21.4200000763,0.019999999553,100.599998474,8.89000034332,8.11999988556,117.800003052,13.1000003815
"2006-06-07 18:00:00",21.2099990845,0.0209999997169,99.0,8.78999996185,8.10999965668,85.5999984741,13.1000003815
"2006-06-07 19:00:00",21.0300006866,0.0219999998808,96.3000030518,8.57999992371,8.09000015259,62.5,13.0399999619
"2006-06-07 20:00:00",20.6900005341,0.0219999998808,97.8000030518,8.77000045776,8.10000038147,58.7000007629,12.9899997711
"2006-06-07 21:00:00",20.0799999237,0.0230000000447,96.5999984741,8.77000045776,8.10000038147,53.2999992371,12.9600000381
"2006-06-07 22:00:00",19.5200004578,0.0230000000447,98.5,9.03999996185,8.09000015259,46.7000007629,12.9399995804
"2006-06-07 23:00:00",18.8199996948,0.0230000000447,99.5,9.27000045776,8.10999965668,31.2000007629,12.9099998474
"2006-06-08 00:00:00",18.1900005341,0.0240000002086,99.8000030518,9.40999984741,8.11999988556,26.3999996185,12.8900003433
"2006-06-08 01:00:00",18.5,0.0240000002086,99.6999969482,9.34000015259,8.14000034332,29.6000003815,12.8699998856
"2006-06-08 02:00:00",18.1399993896,0.0240000002086,96.4000015259,9.10000038147,8.11999988556,31.3999996185,12.8500003815
"2006-06-08 03:00:00",17.6599998474,0.0250000003725,105.199996948,10.029999733,8.10999965668,30.6000003815,12.8199996948
"2006-06-08 04:00:00",18.0300006866,0.0250000003725,99.8000030518,9.43999958038,8.11999988556,25.3999996185,12.7899999619
"2006-06-08 05:00:00",17.7999992371,0.0260000005364,101.099998474,9.61999988556,8.10999965668,23.1000003815,12.779999733
"2006-06-08 06:00:00",17.5100002289,0.0260000005364,105.099998474,10.0500001907,8.07999992371,19.6000003815,12.7600002289
"2006-06-08 07:00:00",17.7999992371,0.0260000005364,100.400001526,9.55000019073,8.13000011444,17.8999996185,12.7600002289
"2006-06-08 08:00:00",18.1299991608,0.0270000007004,101.699996948,9.60000038147,8.09000015259,18.5,12.8100004196
"2006-06-08 09:00:00",18.7900009155,0.0270000007004,102.599998474,9.56000041962,8.05000019073,18.2000007629,12.9099998474
"2006-06-08 10:00:00",19.5499992371,0.0280000008643,102.900001526,9.43999958038,8.02000045776,18.3999996185,13.220000267
"2006-06-08 11:00:00",19.6100006104,0.035000000149,105.099998474,9.63000011444,8.14000034332,21.5,13.4300003052
"2006-06-08 12:00:00",20.2999992371,0.0329999998212,106.5,9.61999988556,8.25,51.5999984741,13.5
"2006-06-08 13:00:00",20.7199993134,0.0320000015199,105.400001526,9.43999958038,8.31999969482,262.700012207,13.970000267
"2006-06-08 14:00:00",20.6200008392,0.0289999991655,101.900001526,9.14999961853,8.64000034332,331.399993896,13.1499996185
"2006-06-08 15:00:00",20.7700004578,0.0280000008643,105.199996948,9.42000007629,8.48999977112,281.799987793,14.0500001907
"2006-06-08 16:00:00",21.0900001526,0.0270000007004,105.400001526,9.38000011444,8.42000007629,237.699996948,13.970000267
"2006-06-08 17:00:00",19.8099994659,0.0260000005364,105.5,9.63000011444,8.36999988556,128.300003052,13.0699996948
"2006-06-08 18:00:00",22.1299991608,0.190999999642,101.800003052,8.88000011444,9.14000034332,1381.0,13.0
"2006-06-08 19:00:00",22.3299999237,0.115000002086,98.5,8.56000041962,8.86999988556,732.0,13.0
"2006-06-08 20:00:00",21.8099994659,0.123999997973,96.0,8.42000007629,8.52000045776,329.0,12.9499998093
"2006-06-08 21:00:00",21.2999992371,0.126000002027,95.0,8.42000007629,8.28999996185,300.100006104,12.9300003052
"2006-06-08 22:00:00",20.8899993896,0.0989999994636,94.4000015259,8.43000030518,8.11999988556,229.0,12.9099998474
"2006-06-08 23:00:00",20.5799999237,0.104999996722,95.5,8.59000015259,8.0,202.100006104,12.8900003433
"2006-06-09 00:00:00",20.2999992371,0.0219999998808,95.5999984741,8.64999961853,7.94999980927,178.600006104,12.8699998856
"2006-06-09 01:00:00",20.0699996948,0.0179999992251,96.5,8.76000022888,7.94000005722,159.699996948,12.8500003815
"2006-06-09 02:00:00",19.7299995422,0.0179999992251,96.8000030518,8.84000015259,7.92999982834,123.400001526,12.8400001526
"2006-06-09 03:00:00",19.5100002289,0.0179999992251,97.1999969482,8.92000007629,7.96999979019,89.5999984741,12.8100004196
"2006-06-09 04:00:00",19.0900001526,0.0179999992251,97.5999984741,9.03999996185,8.01000022888,58.5,12.7899999619
"2006-06-09 05:00:00",18.9400005341,0.0179999992251,98.0,9.10000038147,8.02999973297,40.5,12.7700004578
"2006-06-09 06:00:00",18.6399993896,0.0189999993891,98.5,9.19999980927,8.07999992371,32.2999992371,12.7600002289
"2006-06-09 07:00:00",18.1399993896,0.0189999993891,99.3000030518,9.36999988556,8.40999984741,29.2999992371,12.7600002289
"2006-06-09 08:00:00",18.2000007629,0.0189999993891,99.9000015259,9.42000007629,8.47999954224,28.0,12.7899999619